TimeMDT,TemperatureF,Dew PointF,Humidity,Sea Level PressureIn,VisibilityMPH,Wind Direction,Wind SpeedMPH,Gust SpeedMPH,PrecipitationIn,Events,Conditions,WindDirDegrees,DateUTC
12:15 AM,51.8,37.4,58,30.01,10.0,WSW,3.5,-,N/A,,Clear,250,2013-09-21 06:15:00
12:35 AM,50.0,37.4,62,30.01,10.0,North,3.5,-,N/A,,Clear,350,2013-09-21 06:35:00
12:55 AM,51.8,37.4,58,30.01,10.0,Calm,Calm,-,N/A,,Clear,0,2013-09-21 06:55:00
1:15 AM,51.8,37.4,58,30.01,10.0,Calm,Calm,-,N/A,,Clear,0,2013-09-21 07:15:00
1:35 AM,50.0,37.4,62,30.01,10.0,Calm,Calm,-,N/A,,Clear,0,2013-09-21 07:35:00
1:55 AM,48.2,37.4,66,30.01,10.0,Calm,Calm,-,N/A,,Clear,0,2013-09-21 07:55:00
2:15 AM,42.8,37.4,81,30.01,10.0,Calm,Calm,-,N/A,,Clear,0,2013-09-21 08:15:00
2:35 AM,42.8,35.6,76,30.01,10.0,ENE,3.5,-,N/A,,Clear,60,2013-09-21 08:35:00
2:55 AM,46.4,35.6,66,30.00,10.0,Calm,Calm,-,N/A,,Clear,0,2013-09-21 08:55:00
3:15 AM,46.4,37.4,71,30.01,10.0,Calm,Calm,-,N/A,,Clear,0,2013-09-21 09:15:00
3:35 AM,44.6,37.4,76,29.99,10.0,Calm,Calm,-,N/A,,Clear,0,2013-09-21 09:35:00
3:55 AM,44.6,35.6,71,30.00,10.0,Calm,Calm,-,N/A,,Clear,0,2013-09-21 09:55:00
4:15 AM,42.8,35.6,76,30.00,10.0,Calm,Calm,-,N/A,,Clear,0,2013-09-21 10:15:00
4:35 AM,44.6,35.6,71,30.01,10.0,Calm,Calm,-,N/A,,Clear,0,2013-09-21 10:35:00
4:55 AM,42.8,35.6,76,30.01,10.0,SE,4.6,-,N/A,,Clear,130,2013-09-21 10:55:00
5:15 AM,41.0,35.6,81,30.01,10.0,ESE,4.6,-,N/A,,Clear,120,2013-09-21 11:15:00
5:35 AM,42.8,35.6,76,30.01,10.0,Calm,Calm,-,N/A,,Clear,0,2013-09-21 11:35:00
5:55 AM,41.0,33.8,76,30.01,10.0,Calm,Calm,-,N/A,,Clear,0,2013-09-21 11:55:00
6:15 AM,42.8,35.6,76,30.00,10.0,Calm,Calm,-,N/A,,Clear,0,2013-09-21 12:15:00
6:35 AM,39.2,33.8,81,30.01,10.0,Calm,Calm,-,N/A,,Clear,0,2013-09-21 12:35:00
6:55 AM,39.2,33.8,81,30.01,10.0,Calm,Calm,-,N/A,,Clear,0,2013-09-21 12:55:00
7:15 AM,41.0,33.8,76,30.01,10.0,Calm,Calm,-,N/A,,Clear,0,2013-09-21 13:15:00
7:35 AM,42.8,35.6,76,30.01,10.0,ESE,3.5,-,N/A,,Clear,120,2013-09-21 13:35:00
7:55 AM,42.8,35.6,76,30.01,10.0,Calm,Calm,-,N/A,,Clear,0,2013-09-21 13:55:00
8:15 AM,46.4,37.4,71,30.01,10.0,Calm,Calm,-,N/A,,Clear,0,2013-09-21 14:15:00
8:35 AM,50.0,41.0,71,30.01,10.0,Calm,Calm,-,N/A,,Clear,0,2013-09-21 14:35:00
8:55 AM,51.8,37.4,58,30.01,10.0,Calm,Calm,-,N/A,,Clear,0,2013-09-21 14:55:00
9:15 AM,55.4,37.4,51,30.01,10.0,Calm,Calm,-,N/A,,Clear,0,2013-09-21 15:15:00
9:35 AM,55.4,41.0,58,30.01,10.0,NNW,4.6,-,N/A,,Clear,340,2013-09-21 15:35:00
9:55 AM,59.0,42.8,55,30.00,10.0,North,3.5,-,N/A,,Clear,10,2013-09-21 15:55:00
10:15 AM,60.8,42.8,52,30.00,10.0,Calm,Calm,-,N/A,,Clear,0,2013-09-21 16:15:00
10:35 AM,64.4,41.0,42,29.99,10.0,West,3.5,-,N/A,,Clear,280,2013-09-21 16:35:00
10:55 AM,69.8,35.6,28,29.98,10.0,South,5.8,-,N/A,,Clear,190,2013-09-21 16:55:00
11:15 AM,73.4,30.2,20,29.98,10.0,South,8.1,21.9,N/A,,Clear,190,2013-09-21 17:15:00
11:35 AM,73.4,30.2,20,29.97,10.0,SW,16.1,25.3,N/A,,Clear,220,2013-09-21 17:35:00
11:55 AM,73.4,30.2,20,29.96,10.0,South,4.6,-,N/A,,Clear,190,2013-09-21 17:55:00
12:15 PM,73.4,32.0,22,29.95,10.0,SW,11.5,20.7,N/A,,Clear,230,2013-09-21 18:15:00
12:35 PM,77.0,30.2,18,29.95,10.0,SSW,9.2,-,N/A,,Scattered Clouds,200,2013-09-21 18:35:00
12:55 PM,77.0,30.2,18,29.93,10.0,SW,18.4,27.6,N/A,,Clear,220,2013-09-21 18:55:00
1:15 PM,77.0,32.0,19,29.92,10.0,SW,18.4,24.2,N/A,,Clear,220,2013-09-21 19:15:00
1:35 PM,77.0,30.2,18,29.91,10.0,WSW,12.7,25.3,N/A,,Clear,240,2013-09-21 19:35:00
1:55 PM,77.0,30.2,18,29.90,10.0,SW,17.3,20.7,N/A,,Clear,230,2013-09-21 19:55:00
2:15 PM,78.8,32.0,18,29.88,10.0,SW,13.8,18.4,N/A,,Clear,230,2013-09-21 20:15:00
2:35 PM,78.8,30.2,17,29.87,10.0,SW,18.4,27.6,N/A,,Clear,230,2013-09-21 20:35:00
2:55 PM,78.8,30.2,17,29.86,10.0,SSW,15.0,36.8,N/A,,Scattered Clouds,200,2013-09-21 20:55:00
3:15 PM,78.8,32.0,18,29.85,10.0,South,8.1,19.6,N/A,,Scattered Clouds,180,2013-09-21 21:15:00
3:35 PM,80.6,30.2,16,29.84,10.0,SSW,11.5,17.3,N/A,,Scattered Clouds,200,2013-09-21 21:35:00
3:55 PM,80.6,30.2,16,29.82,10.0,South,19.6,26.5,N/A,,Scattered Clouds,170,2013-09-21 21:55:00
4:15 PM,80.6,30.2,16,29.81,10.0,SSE,12.7,21.9,N/A,,Scattered Clouds,160,2013-09-21 22:15:00
4:35 PM,78.8,30.2,17,29.80,10.0,South,9.2,20.7,N/A,,Scattered Clouds,190,2013-09-21 22:35:00
4:55 PM,80.6,30.2,16,29.79,10.0,South,13.8,20.7,N/A,,Clear,170,2013-09-21 22:55:00
5:15 PM,78.8,32.0,18,29.78,10.0,SSW,19.6,26.5,N/A,,Clear,210,2013-09-21 23:15:00
5:35 PM,78.8,32.0,18,29.77,10.0,SSW,13.8,20.7,N/A,,Clear,210,2013-09-21 23:35:00
5:55 PM,78.8,32.0,18,29.77,10.0,SSW,12.7,20.7,N/A,,Clear,210,2013-09-21 23:55:00
6:15 PM,73.4,33.8,23,29.75,10.0,SW,9.2,18.4,N/A,,Scattered Clouds,230,2013-09-22 00:15:00
6:35 PM,73.4,32.0,22,29.75,10.0,South,5.8,-,N/A,,Clear,180,2013-09-22 00:35:00
6:55 PM,71.6,33.8,25,29.75,10.0,SSW,8.1,-,N/A,,Clear,210,2013-09-22 00:55:00
7:15 PM,71.6,33.8,25,29.74,10.0,SW,15.0,19.6,N/A,,Clear,230,2013-09-22 01:15:00
7:35 PM,71.6,33.8,25,29.74,10.0,South,6.9,17.3,N/A,,Scattered Clouds,170,2013-09-22 01:35:00
7:55 PM,66.2,35.6,32,29.74,10.0,South,4.6,-,N/A,,Mostly Cloudy,180,2013-09-22 01:55:00
8:15 PM,64.4,35.6,34,29.75,10.0,Calm,Calm,-,N/A,Thunderstorm,Overcast,0,2013-09-22 02:15:00
8:35 PM,62.6,37.4,39,29.75,10.0,SE,3.5,-,N/A,,Overcast,140,2013-09-22 02:35:00
8:55 PM,64.4,37.4,37,29.75,10.0,SSE,3.5,-,N/A,,Mostly Cloudy,150,2013-09-22 02:55:00
9:15 PM,68.0,37.4,33,29.75,10.0,South,4.6,-,N/A,,Overcast,190,2013-09-22 03:15:00
9:35 PM,68.0,37.4,33,29.75,10.0,SSE,9.2,-,N/A,,Mostly Cloudy,150,2013-09-22 03:35:00
9:55 PM,68.0,41.0,37,29.75,10.0,SSE,8.1,-,N/A,,Mostly Cloudy,150,2013-09-22 03:55:00
10:15 PM,68.0,41.0,37,29.75,10.0,SSE,6.9,-,N/A,,Mostly Cloudy,150,2013-09-22 04:15:00
10:35 PM,68.0,41.0,37,29.75,10.0,SSE,6.9,-,N/A,,Scattered Clouds,160,2013-09-22 04:35:00
10:55 PM,64.4,41.0,42,29.75,10.0,SSE,6.9,-,N/A,,Scattered Clouds,150,2013-09-22 04:55:00
11:15 PM,66.2,41.0,40,29.75,10.0,SSE,8.1,-,N/A,,Scattered Clouds,160,2013-09-22 05:15:00
11:35 PM,68.0,39.2,35,29.74,10.0,South,6.9,-,N/A,,Scattered Clouds,170,2013-09-22 05:35:00
11:55 PM,68.0,39.2,35,29.74,10.0,South,9.2,-,N/A,,Scattered Clouds,170,2013-09-22 05:55:00